Location: Shenandoah County Park
(38.9356°N, 78.4524°W)
Time: 06:54:49
(UTC-05:00)

ITAMSAT 1 - Pass Details

Date: 28 September 2023
Orbit: 783 x 795 km, 98.8° (Epoch: 07 December)

Event Time Altitude Azimuth Distance (km) Brightness Sun altitude
Exits shadow 21:47:00 49° 281° (W) 1,008 8.4 -32.1°
Drops below altitude 10° 21:51:31 10° 336° (NNW) 2,352 10.7 -32.9°
Sets 21:53:55 0° 341° (NNW) 3,283 11.5 -33.3°
